• In Hungary
  • List of Countries
  • For 7 days
  • Water Temperature
  • Satellite Maps
  • Weather Map
  • News
  • Weather Widgets
  • user-avatar
    Login

    Hourly Weather Cornova

    Today, 22 October, Monday

    Time Temperature Precipitation Wind Pressure Humidity
    00:00 +9°C° 0 mm 3 mps 756 mmHg 73%
    01:00 +9°C° 0 mm 3 mps 756 mmHg 75%
    02:00 +8°C° 0 mm 3 mps 756 mmHg 77%
    03:00 +8°C° 0 mm 3 mps 756 mmHg 78%
    04:00 +7°C° 0 mm 3 mps 756 mmHg 79%
    05:00 +7°C° 0 mm 3 mps 756 mmHg 80%
    06:00 +7°C° 0 mm 3 mps 756 mmHg 77%
    07:00 +8°C° 0 mm 3 mps 756 mmHg 74%
    08:00 +8°C° 0 mm 3 mps 756 mmHg 70%
    09:00 +10°C° 0 mm 3 mps 756 mmHg 63%
    10:00 +11°C° 0 mm 3 mps 756 mmHg 56%
    11:00 +13°C° 0 mm 3 mps 756 mmHg 49%
    12:00 +14°C° 0 mm 3 mps 755 mmHg 46%
    13:00 +14°C° 0 mm 3 mps 755 mmHg 44%
    14:00 +16°C° 0 mm 3 mps 755 mmHg 41%
    15:00 +15°C° 0 mm 2 mps 754 mmHg 43%
    16:00 +14°C° 0 mm 2 mps 754 mmHg 45%
    17:00 +13°C° 0 mm 2 mps 754 mmHg 47%
    18:00 +12°C° 0 mm 1 mps 754 mmHg 49%
    19:00 +12°C° 0 mm 1 mps 754 mmHg 51%
    20:00 +11°C° 0 mm 1 mps 754 mmHg 53%
    21:00 +10°C° 0 mm 1 mps 754 mmHg 54%
    22:00 +10°C° 0 mm 1 mps 754 mmHg 55%
    23:00 +10°C° 0 mm 1 mps 754 mmHg 56%

    Tomorrow, 23 October, Tuesday

    Time Temperature Precipitation Wind Pressure Humidity
    00:00 +9°C° 0 mm 1 mps 754 mmHg 58%
    01:00 +9°C° 0 mm 1 mps 753 mmHg 59%
    02:00 +9°C° 0 mm 1 mps 753 mmHg 60%
    03:00 +8°C° 0 mm 1 mps 753 mmHg 62%
    04:00 +8°C° 0 mm 1 mps 753 mmHg 63%
    05:00 +8°C° 0 mm 1 mps 752 mmHg 64%
    06:00 +9°C° 0 mm 1 mps 752 mmHg 63%
    07:00 +9°C° 0 mm 1 mps 752 mmHg 62%
    08:00 +10°C° 0 mm 1 mps 753 mmHg 61%
    09:00 +10°C° 0 mm 2 mps 752 mmHg 56%
    10:00 +12°C° 0 mm 3 mps 752 mmHg 51%
    11:00 +13°C° 0 mm 3 mps 751 mmHg 47%
    12:00 +13°C° 0 mm 3 mps 751 mmHg 47%
    13:00 +14°C° 0 mm 4 mps 750 mmHg 48%
    14:00 +14°C° 0 mm 4 mps 750 mmHg 49%
    15:00 +14°C° 0 mm 3 mps 749 mmHg 52%
    16:00 +14°C° 0 mm 2 mps 748 mmHg 55%
    17:00 +13°C° 0 mm 2 mps 748 mmHg 58%
    18:00 +12°C° 0 mm 1 mps 747 mmHg 60%
    19:00 +12°C° 0 mm 1 mps 747 mmHg 62%
    20:00 +11°C° 0 mm 1 mps 746 mmHg 63%
    21:00 +12°C° 0.1 mm 2 mps 745 mmHg 64%
    22:00 +11°C° 0.1 mm 3 mps 744 mmHg 65%
    23:00 +11°C° 0.1 mm 4 mps 743 mmHg 65%

    Day after tomorrow, 24 October, Wednesday

    Time Temperature Precipitation Wind Pressure Humidity
    00:00 +10°C° 0.1 mm 5 mps 743 mmHg 63%
    01:00 +10°C° 0.1 mm 6 mps 742 mmHg 61%
    02:00 +10°C° 0.1 mm 7 mps 741 mmHg 60%
    03:00 +10°C° 0.1 mm 6 mps 740 mmHg 59%
    04:00 +10°C° 0.1 mm 6 mps 739 mmHg 58%
    05:00 +9°C° 0.1 mm 5 mps 738 mmHg 57%
    06:00 +10°C° 0 mm 6 mps 737 mmHg 55%
    07:00 +10°C° 0 mm 6 mps 736 mmHg 53%
    08:00 +11°C° 0 mm 7 mps 736 mmHg 51%
    09:00 +12°C° 0.4 mm 7 mps 735 mmHg 50%
    10:00 +13°C° 0.4 mm 8 mps 734 mmHg 49%
    11:00 +15°C° 0.4 mm 9 mps 733 mmHg 48%
    12:00 +12°C° 1.1 mm 9 mps 733 mmHg 48%
    13:00 +11°C° 1.1 mm 9 mps 733 mmHg 48%
    14:00 +10°C° 1.1 mm 9 mps 733 mmHg 49%
    15:00 +8°C° 0 mm 9 mps 734 mmHg 46%
    16:00 +7°C° 0 mm 9 mps 734 mmHg 43%
    17:00 +6°C° 0 mm 9 mps 735 mmHg 40%
    18:00 +6°C° 0.2 mm 9 mps 735 mmHg 46%
    19:00 +5°C° 0.2 mm 10 mps 736 mmHg 52%
    20:00 +3°C° 0.2 mm 10 mps 736 mmHg 58%
    21:00 +3°C° 0.1 mm 10 mps 736 mmHg 57%
    22:00 +3°C° 0.1 mm 10 mps 737 mmHg 56%
    23:00 +3°C° 0.1 mm 10 mps 737 mmHg 55%

    25 October, Thursday

    Time Temperature Precipitation Wind Pressure Humidity
    00:00 +3°C° 0.1 mm 10 mps 737 mmHg 56%
    01:00 +3°C° 0.1 mm 11 mps 737 mmHg 57%
    02:00 +3°C° 0.1 mm 11 mps 737 mmHg 58%
    03:00 +3°C° 0.2 mm 11 mps 737 mmHg 59%
    04:00 +3°C° 0.2 mm 11 mps 738 mmHg 61%
    05:00 +3°C° 0.2 mm 12 mps 738 mmHg 62%
    06:00 +4°C° 0.3 mm 11 mps 739 mmHg 63%
    07:00 +4°C° 0.3 mm 11 mps 740 mmHg 63%
    08:00 +4°C° 0.3 mm 11 mps 740 mmHg 64%
    09:00 +4°C° 0.1 mm 11 mps 741 mmHg 61%
    10:00 +6°C° 0.1 mm 11 mps 742 mmHg 59%
    11:00 +5°C° 0.1 mm 12 mps 742 mmHg 56%
    12:00 +6°C° 0 mm 11 mps 743 mmHg 55%
    13:00 +6°C° 0 mm 11 mps 743 mmHg 53%
    14:00 +6°C° 0 mm 11 mps 744 mmHg 52%
    15:00 +6°C° 0 mm 10 mps 744 mmHg 53%
    16:00 +6°C° 0 mm 9 mps 745 mmHg 54%
    17:00 +6°C° 0 mm 9 mps 746 mmHg 55%
    18:00 +5°C° 0 mm 7 mps 746 mmHg 57%
    19:00 +4°C° 0 mm 6 mps 746 mmHg 58%
    20:00 +5°C° 0 mm 4 mps 747 mmHg 59%
    21:00 +4°C° 0 mm 4 mps 747 mmHg 61%
    22:00 +4°C° 0 mm 4 mps 747 mmHg 62%
    23:00 +4°C° 0 mm 3 mps 747 mmHg 63%

    26 October, Friday

    Time Temperature Precipitation Wind Pressure Humidity
    00:00 +4°C° 0.2 mm 4 mps 747 mmHg 62%
    01:00 +4°C° 0.2 mm 4 mps 747 mmHg 61%
    02:00 +5°C° 0.2 mm 4 mps 747 mmHg 60%
    03:00 +5°C° 0.1 mm 4 mps 747 mmHg 59%
    04:00 +5°C° 0.1 mm 4 mps 747 mmHg 58%
    05:00 +5°C° 0.1 mm 4 mps 747 mmHg 57%
    06:00 +6°C° 0 mm 4 mps 747 mmHg 57%
    07:00 +6°C° 0 mm 4 mps 747 mmHg 57%
    08:00 +7°C° 0 mm 4 mps 747 mmHg 58%
    09:00 +9°C° 0 mm 5 mps 748 mmHg 55%
    10:00 +10°C° 0 mm 6 mps 748 mmHg 52%
    11:00 +12°C° 0 mm 7 mps 748 mmHg 49%
    12:00 +14°C° 0 mm 6 mps 748 mmHg 48%
    13:00 +14°C° 0 mm 6 mps 748 mmHg 47%
    14:00 +15°C° 0 mm 5 mps 748 mmHg 46%
    15:00 +14°C° 0 mm 4 mps 748 mmHg 49%
    16:00 +14°C° 0 mm 2 mps 748 mmHg 52%
    17:00 +13°C° 0 mm 1 mps 749 mmHg 56%
    18:00 +12°C° 0 mm 1 mps 749 mmHg 57%
    19:00 +12°C° 0 mm 1 mps 749 mmHg 59%
    20:00 +11°C° 0 mm 1 mps 749 mmHg 61%
    21:00 +11°C° 0 mm 1 mps 750 mmHg 62%
    22:00 +10°C° 0 mm 2 mps 750 mmHg 64%
    23:00 +9°C° 0 mm 2 mps 750 mmHg 65%

    27 October, Saturday

    Time Temperature Precipitation Wind Pressure Humidity
    00:00 +9°C° 0 mm 2 mps 750 mmHg 67%
    01:00 +8°C° 0 mm 2 mps 749 mmHg 69%
    02:00 +8°C° 0 mm 2 mps 749 mmHg 70%
    03:00 +8°C° 0 mm 2 mps 749 mmHg 71%
    04:00 +7°C° 0 mm 2 mps 749 mmHg 71%
    05:00 +7°C° 0 mm 2 mps 749 mmHg 71%
    06:00 +8°C° 0 mm 3 mps 749 mmHg 69%
    07:00 +9°C° 0 mm 3 mps 748 mmHg 66%
    08:00 +9°C° 0 mm 3 mps 748 mmHg 63%
    09:00 +11°C° 0 mm 3 mps 748 mmHg 58%
    10:00 +13°C° 0 mm 4 mps 748 mmHg 54%
    11:00 +14°C° 0 mm 4 mps 748 mmHg 49%
    12:00 +15°C° 0 mm 4 mps 748 mmHg 48%
    13:00 +17°C° 0 mm 4 mps 747 mmHg 46%
    14:00 +18°C° 0 mm 4 mps 747 mmHg 44%
    15:00 +18°C° 0 mm 4 mps 747 mmHg 44%
    16:00 +17°C° 0 mm 4 mps 747 mmHg 44%
    17:00 +17°C° 0 mm 4 mps 746 mmHg 44%
    18:00 +15°C° 0 mm 4 mps 746 mmHg 43%
    19:00 +15°C° 0 mm 4 mps 746 mmHg 42%
    20:00 +14°C° 0 mm 4 mps 746 mmHg 41%
    21:00 +14°C° 0 mm 4 mps 746 mmHg 41%
    22:00 +13°C° 0 mm 4 mps 746 mmHg 42%
    23:00 +13°C° 0 mm 4 mps 746 mmHg 42%
    Show more